This demonstration page uses our WeatherBlox Daily Observations layout. Learn more.

39.08367, -84.50855

Hourly Observations for July 15, 2019

Temp ( °F °C ) Dew Point ( °F °C ) Humidity (%) Winds ( mph kmh ) Pressure ( in mb ) Visibility ( mi km ) Precip ( " mm )
12:53 am 00:53 Clear 71 21.7 67 19.4 87 87 NNE 7 11 30.09 1019 10 16.09344 0 0
1:53 am 01:53 Clear 69 20.6 66 18.9 90 90 SW 3 6 30.09 1019 10 16.09344 0 0
2:53 am 02:53 Clear 69 20.6 67 19.4 93 93 Calm 30.09 1019 10 16.09344 0 0
3:53 am 03:53 Clear 68 20 66 18.9 93 93 Calm 30.09 1019 10 16.09344 0 0
4:53 am 04:53 Clear 67 19.4 65 18.3 93 93 Calm 30.09 1019 10 16.09344 0 0
5:53 am 05:53 Clear 68 20 66 18.9 93 93 NE 3 6 30.09 1019 10 16.09344 0 0
6:53 am 06:53 Sunny 68 20 66 18.9 93 93 Calm 30.12 1020 10 16.09344 0 0
7:53 am 07:53 Sunny 72 22.2 69 20.6 91 91 Calm 30.09 1019 10 16.09344 0 0
8:53 am 08:53 Sunny 77 25 70 21.1 79 79 Calm 30.09 1019 10 16.09344 0 0
9:53 am 09:53 Sunny 79 26.1 72 22.2 79 79 Calm 30.12 1020 10 16.09344 0 0
10:53 am 10:53 Sunny 83 28.3 72 22.2 70 70 SW 3 6 30.09 1019 10 16.09344 0 0
11:53 am 11:53 Sunny 86 30 74 23.3 67 67 S 3 6 30.09 1019 10 16.09344 0 0
12:53 pm 12:53 Mostly Sunny 88 31.1 71 21.7 57 57 Calm 30.09 1019 10 16.09344 0 0
1:53 pm 13:53 Mostly Cloudy 88 31.1 72 22.2 59 59 S 6 9 30.06 1018 10 16.09344 0 0
2:53 pm 14:53 Mostly Cloudy with Light Thunderstorms 81 27.2 72 22.2 74 74 SW 15 24 30.06 1018 10 16.09344 0.001 0.001
3:26 pm 15:26 Cloudy with Light Rain 78 25.6 72 22.2 82 82 W 5 7 30.06 1018 7 11.265408 0.05 1.27
3:53 pm 15:53 Mostly Cloudy 79 26.1 73 22.8 82 82 Calm 30.06 1018 10 16.09344 0.05 1.27
4:34 pm 16:34 Windy with Storms Likely 75 23.9 71 21.7 88 88 S 21 33 30.09 1019 10 16.09344 0.01 0.254
4:53 pm 16:53 Mostly Cloudy with Light Thunderstorms 73 22.8 71 21.7 94 94 SSW 10 17 30.12 1020 3 4.828032 0.04 1.016
5:53 pm 17:53 Mostly Cloudy with Light Thunderstorms 72 22.2 70 21.1 94 94 W 10 17 30.12 1020 3 4.828032 0.2 5.08
6:36 pm 18:36 Cloudy with Light Rain 72 22.2 70 21.1 94 94 Calm 30.09 1019 4 6.437376 0.05 1.27
6:53 pm 18:53 Cloudy with Light Rain 73 22.8 71 21.7 94 94 Calm 30.09 1019 7 11.265408 0.06 1.524
7:53 pm 19:53 Sunny 73 22.8 71 21.7 94 94 Calm 30.06 1018 10 16.09344 0.01 0.254
8:53 pm 20:53 Mostly Sunny 72 22.2 71 21.7 97 97 S 5 7 30.06 1018 10 16.09344 0 0
9:53 pm 21:53 Clear 72 22.2 71 21.7 97 97 Calm 30.06 1018 10 16.09344 0 0
10:53 pm 22:53 Mostly Cloudy with Light Rain 72 22.2 70 21.1 94 94 Calm 30.06 1018 10 16.09344 0.001 0.001
11:53 pm 23:53 Mostly Clear 74 23.3 71 21.7 91 91 Calm 30.06 1018 10 16.09344 0.001 0.001

Powered by AerisWeather